Regional Weather Roundup
Issued by NWS Kansas City/Pleasant Hill, MO

Home | Current Version | Previous Version | Graphics & Text | Print | Product List | Glossary Off
Versions: 1 2 3 4 5 6 7 8 9 10 11 12 13 14 15 16 17 18 19 20 21 22 23 24 25 26 27

000
ASUS43 KEAX 290710
RWREAX

WEATHER ROUNDUP FOR EASTERN KANSAS AND NORTHWEST MISSOURI
NATIONAL WEATHER SERVICE KANSAS CITY/PLEASANT HILL MO
200 AM CDT SAT APR 29 2017

KSZ040-057-103>105-MOZ028-029-037-043-290800-
...KANSAS CITY METROPOLITAN AREA...

CITY           SKY/WX    TMP DP  RH WIND       PRES   REMARKS
K.C. INTL      CLOUDY    44  43  96 NE17      29.94R VSB 1
K.C. DOWNTOWN  CLOUDY    46  44  93 N13       29.90R
LEES SUMMIT    CLOUDY    45  45 100 N10       29.89R FOG
OLATHE - IXD   FOG       44  44 100 N12       29.90R VSB 1
OLATHE - OJC   CLOUDY    44  44 100 N13       29.88R FOG
LAWRENCE       CLOUDY    45  45 100 N9G21     29.91S FOG

$$

MOZ001>008-011>017-020>025-030>033-038>040-044>046-053-054-290800-
...NORTHERN AND CENTRAL MISSOURI...

CITY           SKY/WX    TMP DP  RH WIND       PRES   REMARKS
ST. JOSEPH     CLOUDY    45  44  97 NE13G22   29.95S
MOSBY          CLOUDY    45  45 100 NE8       29.93R
WHITEMAN AFB   CLOUDY    48  48 100 N7        29.88F FOG
CLINTON        LGT RAIN  50  50 100 NE10      29.88R
SEDALIA        CLOUDY    52  52 100 NE9       29.89S FOG
WARSAW         NOT AVBL
CHILLICOTHE      N/A     46  44  93 N9        29.94R
KIRKSVILLE     CLOUDY    45  40  82 NE14G25   29.94S HAZE

$$

MOZ041-047>049-056>058-063>065-088>090-097-290800-
...EASTERN AND SOUTHERN MISSOURI...

CITY           SKY/WX    TMP DP  RH WIND       PRES   REMARKS
ST. LOUIS INTL TSTM      59  56  89 NE14      29.84F FOG
SPIRIT OF STL  LGT RAIN  58  58 100 NE8       29.83F FOG
COLUMBIA       CLOUDY    57  57 100 NE13      29.87R THUNDER
JEFFERSON CITY TSTM      61  56  83 NE7       29.85F
ROLLA          RAIN      58  58 100 CALM      29.87R FOG
OSAGE BEACH    TSTM      59  58  96 NE5       29.89R
SPRINGFIELD    TSTM      62  61  96 N10       29.80R FOG
BRANSON        CLOUDY    63  63 100 N7        29.73F FOG
JOPLIN         LGT RAIN  62  60  93 E12G22    29.74F FOG
WEST PLAINS    CLOUDY    64  62  93 CALM      29.80F

$$

IAZ060-094-KSZ022-034>040-054-083-096-NEZ052-066-093-290800-
...KANSAS...SOUTHEAST NEBRASKA AND IOWA...

CITY           SKY/WX    TMP DP  RH WIND       PRES   REMARKS
TOPEKA         CLOUDY    45  44  97 N13       29.89F
MANHATTAN      CLOUDY    44  41  89 NE16G22   29.89F
EMPORIA        CLOUDY    44  44 100 N17G24    29.83F
CHANUTE        CLOUDY    51  50  96 NE16G25   29.83R FOG
WICHITA        CLOUDY    46  43  89 N20       29.82R
OMAHA          CLOUDY    44  37  76 N13       30.06F
LINCOLN        CLOUDY    43  38  82 N17G24    30.04F
FALLS CITY     CLOUDY    44  41  89 N14G23    29.94F
LAMONI         CLOUDY    43  41  93 N18G26    29.93F WCI  35
DES MOINES     CLOUDY    45  38  76 N15       30.00F

$$





USA.gov is the U.S. government's official web portal to all federal, state and local government web resources and services.